Change the Weather History Date:

Sunday, November 17, 2013

  Actual Average Record
Temperature  
Mean Temperature 50 °F 38 °F  
Max Temperature 62 °F 47 °F 68 °F (2006)
Min Temperature 38 °F 30 °F 18 °F (2012)
Degree Days  
Heating Degree Days 15 27  
Month to date heating degree days 421 415  
Since 1 July heating degree days 1175 1236  
Cooling Degree Days 0 0  
Month to date cooling degree days 0 0  
Year to date cooling degree days 503 313  
Moisture  
Dew Point 47 °F    
Average Humidity 71    
Maximum Humidity 80    
Minimum Humidity 61    
Precipitation  
Precipitation 0.02 in 0.10 in 0.91 in (2002)
Month to date precipitation 1.02 1.75  
Year to date precipitation 40.31 36.55  
Sea Level Pressure  
Sea Level Pressure 30.06 in    
Wind  
Wind Speed 9 mph (SE)    
Max Wind Speed 30 mph    
Max Gust Speed 43 mph    
Visibility 10 miles    
Events Rain    
T = Trace of Precipitation, MM = Missing Value Source: NWS Daily Summary

Daily Weather History Graph

Daily Weather History Graph

Search for Another Location

Airport or City:

Trip Planner

Search our weather history database for the weather conditions in past years. The results will help you decide how hot, cold, wet, or windy it might be!

Date:

Astronomy

Nov. 17, 2013 Rise Set
Actual Time 6:47 AM EST 4:27 PM EST
Civil Twilight 6:17 AM EST 4:58 PM EST
Nautical Twilight 5:42 AM EST 5:32 PM EST
Astronomical Twilight 5:09 AM EST 6:06 PM EST
Moon 4:42 PM EST (11/17) 6:39 AM EST (11/17)
Length of Visible Light 10h 41m
Length of Day
9h 39m
Full, 100% of the Moon is Illuminated
Nov 17
Full
Nov 25
Last Quarter
Dec 2
New
Dec 9
First Quarter
Dec 17
Full

Hourly Weather History & Observations

Time (EST) Temp. Windchill Dew Point Humidity Pressure Visibility Wind Dir Wind Speed Gust Speed Precip Events Conditions
12:54 AM 43.0 °F 41.3 °F 32.0 °F 65% 30.25 in 10.0 mi NE 3.5 mph - N/A   Clear
1:54 AM 39.9 °F - 32.0 °F 73% 30.23 in 10.0 mi Calm Calm - N/A   Clear
2:54 AM 41.0 °F - 33.1 °F 73% 30.22 in 10.0 mi Calm Calm - N/A   Clear
3:54 AM 50.0 °F - 37.9 °F 63% 30.20 in 10.0 mi SE 8.1 mph - N/A   Scattered Clouds
4:54 AM 51.1 °F - 42.1 °F 71% 30.22 in 10.0 mi Variable 4.6 mph 21.9 mph N/A   Overcast
5:35 AM 50.0 °F - 42.8 °F 76% 30.21 in 10.0 mi South 4.6 mph - N/A   Mostly Cloudy
5:54 AM 50.0 °F - 43.0 °F 77% 30.20 in 10.0 mi SE 9.2 mph 18.4 mph N/A   Mostly Cloudy
6:54 AM 52.0 °F - 44.1 °F 74% 30.19 in 10.0 mi ESE 5.8 mph - N/A   Overcast
7:54 AM 53.1 °F - 45.0 °F 74% 30.19 in 10.0 mi SE 6.9 mph - N/A   Overcast
8:54 AM 54.0 °F - 46.0 °F 75% 30.19 in 10.0 mi Calm Calm - N/A   Overcast
9:54 AM 55.9 °F - 46.9 °F 72% 30.18 in 10.0 mi Variable 5.8 mph - N/A   Overcast
10:54 AM 55.9 °F - 48.0 °F 75% 30.15 in 6.0 mi SE 11.5 mph 21.9 mph N/A   Haze
11:03 AM 53.6 °F - 48.2 °F 82% 30.14 in 4.0 mi SE 12.7 mph - 0.00 in Rain Light Rain
11:13 AM 53.6 °F - 48.2 °F 82% 30.14 in 10.0 mi SE 15.0 mph 21.9 mph 0.00 in   Overcast
11:20 AM 53.6 °F - 48.2 °F 82% 30.13 in 10.0 mi SE 13.8 mph 21.9 mph 0.00 in   Overcast
11:54 AM 55.0 °F - 48.0 °F 77% 30.13 in 10.0 mi SE 11.5 mph - 0.00 in   Overcast
12:54 PM 55.9 °F - 48.0 °F 75% 30.10 in 10.0 mi SSE 5.8 mph - N/A   Overcast
1:54 PM 57.0 °F - 48.9 °F 74% 30.06 in 10.0 mi SSE 6.9 mph - N/A   Overcast
2:15 PM 57.2 °F - 48.2 °F 72% 30.05 in 10.0 mi SE 9.2 mph - N/A   Mostly Cloudy
2:35 PM 57.2 °F - 48.2 °F 72% 30.05 in 10.0 mi SSE 5.8 mph - N/A   Overcast
2:54 PM 57.0 °F - 48.9 °F 74% 30.04 in 10.0 mi ESE 6.9 mph - N/A   Overcast
3:31 PM 57.2 °F - 51.8 °F 82% 30.01 in 10.0 mi SE 13.8 mph 19.6 mph 0.00 in Rain Light Rain
3:54 PM 57.0 °F - 51.1 °F 81% 30.00 in 10.0 mi ESE 8.1 mph - 0.00 in   Overcast
4:15 PM 57.2 °F - 51.8 °F 82% 30.00 in 10.0 mi SSE 9.2 mph 19.6 mph 0.00 in Rain Light Rain
4:54 PM 57.0 °F - 51.1 °F 81% 29.99 in 10.0 mi SE 11.5 mph - 0.00 in   Overcast
5:54 PM 57.9 °F - 52.0 °F 81% 29.96 in 10.0 mi SE 9.2 mph - 0.00 in Rain Light Rain
6:54 PM 57.9 °F - 51.1 °F 78% 29.93 in 10.0 mi SE 11.5 mph 18.4 mph 0.00 in   Overcast
7:54 PM 57.9 °F - 52.0 °F 81% 29.89 in 10.0 mi SE 13.8 mph - 0.01 in Rain Light Rain
8:22 PM 57.2 °F - 51.8 °F 82% 29.85 in 10.0 mi SE 11.5 mph 19.6 mph 0.00 in Rain Light Rain
8:54 PM 60.1 °F - 52.0 °F 75% 29.83 in 10.0 mi SSE 11.5 mph 20.7 mph 0.00 in Rain Light Rain
9:54 PM 61.0 °F - 52.0 °F 72% 29.78 in 10.0 mi SSE 26.5 mph 42.6 mph 0.01 in   Overcast
10:54 PM 61.0 °F - 52.0 °F 72% 29.74 in 10.0 mi SSE 21.9 mph 32.2 mph 0.00 in   Overcast
11:54 PM 61.0 °F - 52.0 °F 72% 29.70 in 10.0 mi SSE 24.2 mph 31.1 mph N/A   Scattered Clouds